GW1765 Weather Reports


Display with metric or nautical units.
time (UTC)temp
F
wind
direction
speed
MPH
gust
MPH
rain 1hr
in
rain 24hr
in
rain mn
in
humidity
%
barometer
mb
20260502164114 45 90 3.0 4.0 0.00 0.00 0.00 95 1036.5
20260502163046 45 94 4.0 5.0 0.00 0.00 0.00 95 1036.5
20260502162102 45 95 3.0 6.0 0.00 0.00 0.00 95 1036.5
20260502161040 45 90 3.0 5.0 0.00 0.00 0.00 95 1036.6
20260502152018 45 93 2.0 4.0 0.00 0.00 0.00 95 1036.6
20260502151037 45 90 3.0 5.0 0.00 0.00 0.00 95 1036.6
20260502150108 45 93 2.0 4.0 0.00 0.00 0.00 96 1036.7
20260502123109 46 87 3.0 6.0 0.00 0.00 0.00 92 1036.2
20260502122107 46 91 3.0 6.0 0.00 0.00 0.00 92 1036.2
20260502121124 45 100 3.0 5.0 0.00 0.00 0.00 94 1036.1
20260502115053 46 61 2.0 4.0 0.00 0.00 0.00 91 1036.0
20260502114052 46 94 1.0 2.0 0.00 0.00 0.00 91 1036.0
20260502113044 46 90 2.0 4.0 0.00 0.00 0.00 91 1035.9
20260502112041 47 95 2.0 4.0 0.00 0.00 0.00 91 1035.9
20260502111039 47 99 3.0 4.0 0.00 0.00 0.00 91 1035.9
20260502110031 47 90 2.0 4.0 0.00 0.00 0.00 91 1035.9
20260502105030 47 94 2.0 4.0 0.00 0.00 0.00 91 1035.9
20260502104049 47 85 2.0 4.0 0.00 0.00 0.00 91 1035.9
20260502103019 47 93 3.0 4.0 0.00 0.00 0.00 91 1035.8
20260502102037 47 80 5.0 7.0 0.00 0.00 0.00 91 1035.8
20260502101017 47 100 3.0 5.0 0.00 0.00 0.00 91 1035.7
20260502100108 47 77 3.0 5.0 0.00 0.00 0.00 91 1035.6
20260502091052 47 86 2.0 3.0 0.00 0.00 0.00 90 1035.1
20260502071103 51 93 2.0 3.0 0.00 0.00 0.00 84 1034.5
20260502070055 51 90 2.0 4.0 0.00 0.00 0.00 82 1034.4
20260502065053 52 90 3.0 4.0 0.00 0.00 0.00 79 1034.3
20260502064051 52 81 2.0 4.0 0.00 0.00 0.00 76 1034.1
20260502063125 52 62 1.0 2.0 0.00 0.00 0.00 73 1034.0
20260502062101 53 135 1.0 2.0 0.00 0.00 0.00 71 1033.8
20260502061101 54 135 1.0 2.0 0.00 0.00 0.00 70 1033.7
20260502060110 56 135 0.0 2.0 0.00 0.00 0.00 61 1033.8
20260502055107 59 135 0.0 2.0 0.00 0.00 0.00 59 1033.8
20260502054105 62 167 1.0 3.0 0.00 0.00 0.00 56 1033.6
20260502053103 66 206 2.0 3.0 0.00 0.00 0.00 51 1033.7
20260502052101 69 199 2.0 4.0 0.00 0.00 0.00 50 1033.6
20260502051101 71 221 3.0 4.0 0.00 0.00 0.00 49 1033.6
20260502050057 73 217 3.0 5.0 0.00 0.00 0.00 46 1033.5
20260502045056 73 229 4.0 5.0 0.00 0.00 0.00 43 1033.5
20260502044055 74 224 4.0 7.0 0.00 0.00 0.00 43 1033.6
20260502043051 74 230 5.0 8.0 0.00 0.00 0.00 44 1033.7
20260502042049 74 221 4.0 5.0 0.00 0.00 0.00 44 1033.7
20260502041047 73 246 5.0 8.0 0.00 0.00 0.00 44 1033.6
20260502040044 75 235 4.0 7.0 0.00 0.00 0.00 42 1033.6
20260502035042 76 215 5.0 8.0 0.00 0.00 0.00 41 1033.7
20260502034042 77 244 5.0 8.0 0.00 0.00 0.00 41 1033.7
20260502033100 76 228 4.0 6.0 0.00 0.00 0.00 42 1033.8
20260502032036 74 239 4.0 7.0 0.00 0.00 0.00 47 1034.0
20260502031034 69 228 4.0 8.0 0.00 0.00 0.00 50 1034.0
20260502030033 69 248 3.0 4.0 0.00 0.00 0.00 49 1034.1
20260502025050 69 235 3.0 5.0 0.00 0.00 0.00 50 1034.3
20260502024029 69 301 3.0 5.0 0.00 0.00 0.00 43 1034.3
20260502023106 74 224 2.0 5.0 0.00 0.00 0.00 46 1034.4
20260502022026 70 256 3.0 7.0 0.00 0.00 0.00 51 1034.6
20260502021022 69 315 3.0 7.0 0.00 0.00 0.00 52 1034.7
20260502020021 68 281 4.0 7.0 0.00 0.00 0.00 52 1034.7
20260502015057 67 269 3.0 5.0 0.00 0.00 0.00 53 1034.8
20260502014116 66 305 5.0 10.0 0.00 0.00 0.00 52 1035.0
20260502013113 67 273 3.0 8.0 0.00 0.00 0.00 53 1035.2
20260502012110 67 307 4.0 8.0 0.00 0.00 0.00 53 1035.3
20260502011110 66 295 5.0 8.0 0.00 0.00 0.00 55 1035.5
20260502010106 64 310 4.0 7.0 0.00 0.00 0.00 59 1035.6
20260502005104 65 313 6.0 11.0 0.00 0.00 0.00 57 1035.7
20260502004102 64 262 3.0 5.0 0.00 0.00 0.00 61 1035.9
20260502003123 62 308 4.0 6.0 0.00 0.00 0.00 60 1036.1
20260502002057 64 320 5.0 8.0 0.00 0.00 0.00 54 1036.2
20260502001055 67 305 5.0 9.0 0.00 0.00 0.00 54 1036.4
20260502000055 66 303 4.0 8.0 0.00 0.00 0.00 56 1036.5
20260501235051 65 308 4.0 8.0 0.00 0.00 0.00 58 1036.8
20260501234050 63 12 6.0 10.0 0.00 0.00 0.00 61 1036.8
20260501233047 63 334 5.0 8.0 0.00 0.00 0.00 63 1036.9
20260501232045 62 317 5.0 8.0 0.00 0.00 0.00 64 1037.1
20260501231044 61 327 6.0 9.0 0.00 0.00 0.00 64 1037.0
20260501230040 61 333 4.0 6.0 0.00 0.00 0.00 64 1037.1
20260501225119 62 327 5.0 8.0 0.00 0.00 0.00 61 1037.3
20260501224037 63 315 4.0 8.0 0.00 0.00 0.00 59 1037.3
20260501223036 64 315 4.0 8.0 0.00 0.00 0.00 56 1037.3
20260501222033 64 346 5.0 9.0 0.00 0.00 0.00 56 1037.5
20260501221029 64 335 3.0 8.0 0.00 0.00 0.00 59 1037.4
20260501220027 64 357 4.0 8.0 0.00 0.00 0.00 56 1037.6
20260501215025 64 350 4.0 8.0 0.00 0.00 0.00 54 1037.6
20260501214023 65 4 4.0 7.0 0.00 0.00 0.00 54 1037.7
20260501213022 65 16 2.0 4.0 0.00 0.00 0.00 56 1037.9
20260501212018 64 39 2.0 4.0 0.00 0.00 0.00 58 1038.0
20260501211115 64 33 2.0 4.0 0.00 0.00 0.00 62 1037.9
20260501210113 62 44 2.0 4.0 0.00 0.00 0.00 66 1037.9
20260501205153 61 50 2.0 4.0 0.00 0.00 0.00 70 1038.0
20260501204109 59 55 2.0 4.0 0.00 0.00 0.00 75 1037.9
20260501203107 57 57 2.0 4.0 0.00 0.00 0.00 81 1037.8
20260501202104 54 59 2.0 4.0 0.00 0.00 0.00 87 1037.7
20260501201056 51 56 2.0 4.0 0.00 0.00 0.00 88 1037.7
20260501200056 48 63 2.0 5.0 0.00 0.00 0.00 86 1037.5
20260501195052 47 59 2.0 3.0 0.00 0.00 0.00 84 1037.5
20260501194047 47 130 2.0 4.0 0.00 0.00 0.00 84 1037.5
20260501193042 47 92 1.0 2.0 0.00 0.00 0.00 83 1037.4
20260501192042 47 65 1.0 4.0 0.00 0.00 0.00 83 1037.3
20260501191032 47 83 2.0 4.0 0.00 0.00 0.00 83 1037.3
20260501190032 48 67 2.0 4.0 0.00 0.00 0.00 83 1037.2
20260501185028 48 60 2.0 4.0 0.00 0.00 0.00 83 1037.1
20260501184022 49 49 4.0 7.0 0.00 0.00 0.00 83 1037.1
20260501183018 49 44 4.0 6.0 0.00 0.00 0.00 83 1037.0
20260501182017 49 59 3.0 6.0 0.00 0.00 0.00 83 1037.0
20260501181151 48 53 3.0 5.0 0.00 0.00 0.00 83 1037.0
20260501180108 48 66 3.0 4.0 0.00 0.00 0.00 83 1037.1
20260501175105 48 63 3.0 5.0 0.00 0.00 0.00 83 1037.2
20260501174100 48 43 3.0 4.0 0.00 0.00 0.00 83 1037.2
20260501173055 48 70 3.0 5.0 0.00 0.00 0.00 82 1037.2
20260501172055 49 56 3.0 5.0 0.00 0.00 0.00 82 1037.1
20260501171128 48 36 4.0 6.0 0.00 0.00 0.00 82 1037.0